GW0416 Weather Reports


time (UTC)temp
F
wind
direction
speed
knots
gust
knots
rain 1hr
in
rain 24hr
in
rain mn
in
humidity
%
barometer
mb
20260503213033 71 309 13.9 20.0 0.00 0.00 0.00 22 1009.2
20260503211530 70 323 6.1 20.9 0.00 0.00 0.00 21 1009.5
20260503210028 71 324 8.7 19.1 0.00 0.00 0.00 22 1009.7
20260503204528 70 327 10.4 18.2 0.00 0.00 0.00 22 1009.8
20260503203036 69 283 9.6 19.1 0.00 0.00 0.00 23 1010.0
20260503201532 70 294 10.4 17.4 0.00 0.00 0.00 22 1010.4
20260503200034 69 308 10.4 21.7 0.00 0.00 0.00 23 1010.6
20260503194531 69 324 14.8 25.2 0.00 0.00 0.00 20 1010.7
20260503193030 69 296 9.6 18.2 0.00 0.00 0.00 20 1010.9
20260503191528 69 312 13.0 20.0 0.00 0.00 0.00 22 1011.2
20260503190032 68 281 10.4 19.1 0.00 0.00 0.00 21 1011.2
20260503184536 68 259 11.3 20.9 0.00 0.00 0.00 22 1011.3
20260503183029 68 313 14.8 20.0 0.00 0.00 0.00 22 1011.5
20260503181529 68 269 11.3 21.7 0.00 0.00 0.00 23 1011.6
20260503180035 68 306 8.7 20.0 0.00 0.00 0.00 24 1011.8
20260503174532 67 286 15.6 23.5 0.00 0.00 0.00 24 1012.0
20260503173034 68 298 11.3 20.9 0.00 0.00 0.00 25 1012.2
20260503171537 67 286 8.7 19.1 0.00 0.00 0.00 24 1012.2
20260503081534 48 284 2.6 7.8 0.00 0.00 0.00 67 1015.2
20260503071552 48 266 1.7 5.2 0.00 0.00 0.00 65 1015.7
20260503054530 51 312 1.7 3.5 0.00 0.00 0.00 58 1015.9
20260503053036 52 312 2.6 4.3 0.00 0.00 0.00 54 1015.9
20260503051530 51 304 2.6 7.0 0.00 0.00 0.00 53 1016.1
20260503050032 55 288 2.6 8.7 0.00 0.00 0.00 48 1016.1
20260503044544 54 202 7.0 10.4 0.00 0.00 0.00 50 1016.0
20260503043042 54 144 5.2 7.0 0.00 0.00 0.00 48 1016.1
20260503041530 55 200 1.7 5.2 0.00 0.00 0.00 49 1016.2
20260503040038 56 138 2.6 4.3 0.00 0.00 0.00 46 1016.0
20260503034532 56 85 1.7 3.5 0.00 0.00 0.00 46 1016.2
20260503033032 55 85 2.6 6.1 0.00 0.00 0.00 46 1016.2
20260503031534 56 90 2.6 6.1 0.00 0.00 0.00 45 1015.9
20260503030032 57 81 5.2 7.0 0.00 0.00 0.00 44 1015.8
20260503024529 57 78 5.2 7.0 0.00 0.00 0.00 45 1015.7
20260503023030 58 80 4.3 7.0 0.00 0.00 0.00 43 1015.7
20260503021529 61 67 5.2 7.8 0.00 0.00 0.00 40 1015.7
20260503020030 62 49 1.7 3.5 0.00 0.00 0.00 39 1015.6
20260503014529 63 40 2.6 5.2 0.00 0.00 0.00 38 1015.7
20260503013034 63 36 4.3 7.0 0.00 0.00 0.00 38 1015.6
20260503011535 63 22 2.6 7.0 0.00 0.00 0.00 39 1015.9
20260503010036 63 350 5.2 8.7 0.00 0.00 0.00 39 1015.9
20260503004554 63 9 2.6 4.3 0.00 0.00 0.00 38 1015.9
20260503003032 63 330 4.3 8.7 0.00 0.00 0.00 38 1016.2
20260503001530 64 350 6.1 8.7 0.00 0.00 0.00 38 1016.3
20260503000043 65 28 1.7 6.1 0.00 0.00 0.00 36 1016.3
20260502234532 66 336 2.6 9.6 0.00 0.00 0.00 36 1016.4
20260502233029 66 5 4.3 8.7 0.00 0.00 0.00 35 1016.5
20260502231533 64 0 0.9 8.7 0.00 0.00 0.00 39 1016.8
20260502230032 63 314 5.2 8.7 0.00 0.00 0.00 39 1017.0
20260502224532 64 350 7.8 10.4 0.00 0.00 0.00 38 1017.2
20260502223031 65 36 4.3 10.4 0.00 0.00 0.00 37 1017.3
20260502221530 63 330 4.3 10.4 0.00 0.00 0.00 39 1017.5
20260502220033 63 264 0.9 10.4 0.00 0.00 0.00 39 1017.8
20260502214528 63 5 6.1 11.3 0.00 0.00 0.00 40 1018.1